Satellite-Ground Cal/Val Region Overpasses Predictions

Prediction of Satellite NPP Overpassing Cal/Val Region: PacNW

Region Location: (Latitude: 10.00, Longitude: 139.50) to (Latitude: 22.70, Longitude: 165.60).

Table of predicted overpasses for the next 14.0 days since TLE Epoch: 8/18/2018
Interval Starting Time Starting Location Ending Time Ending Location
1 08/18/2018 15:55:45 ( 22.68, 146.08) 08/18/2018 15:59:20 ( 10.06, 143.07)
2 08/19/2018 03:04:50 ( 10.04, 153.59) 08/19/2018 03:08:25 ( 22.67, 150.58)
3 08/19/2018 15:36:43 ( 22.69, 150.84) 08/19/2018 15:40:19 ( 10.01, 147.82)
4 08/20/2018 02:45:49 ( 10.03, 158.35) 08/20/2018 02:49:24 ( 22.65, 155.34)
5 08/20/2018 15:17:43 ( 22.64, 155.58) 08/20/2018 15:21:18 ( 10.02, 152.58)
6 08/21/2018 02:26:47 ( 10.02, 163.11) 08/21/2018 02:30:23 ( 22.70, 160.09)
7 08/21/2018 14:58:41 ( 22.66, 160.34) 08/21/2018 15:02:16 ( 10.04, 157.34)
8 08/22/2018 02:10:31 ( 19.69, 165.59) 08/22/2018 02:11:22 ( 22.69, 164.85)
9 08/22/2018 03:49:16 ( 10.01, 142.49) 08/22/2018 03:52:50 ( 22.57, 139.50)
10 08/22/2018 14:39:40 ( 22.67, 165.10) 08/22/2018 14:43:15 ( 10.05, 162.10)
11 08/22/2018 16:21:10 ( 22.67, 139.73) 08/22/2018 16:21:25 ( 21.79, 139.51)
12 08/23/2018 03:30:15 ( 10.05, 147.24) 08/23/2018 03:33:50 ( 22.68, 144.23)
13 08/23/2018 16:02:08 ( 22.68, 144.48) 08/23/2018 16:05:44 ( 10.00, 141.47)
14 08/24/2018 03:11:14 ( 10.04, 152.00) 08/24/2018 03:14:49 ( 22.67, 148.99)
15 08/24/2018 15:43:07 ( 22.69, 149.24) 08/24/2018 15:46:43 ( 10.02, 146.23)
16 08/25/2018 02:52:13 ( 10.03, 156.75) 08/25/2018 02:55:48 ( 22.65, 153.75)
17 08/25/2018 15:24:06 ( 22.65, 153.99) 08/25/2018 15:27:41 ( 10.03, 150.98)
18 08/26/2018 02:33:11 ( 10.02, 161.51) 08/26/2018 02:36:46 ( 22.64, 158.51)
19 08/26/2018 15:05:05 ( 22.66, 158.75) 08/26/2018 15:08:40 ( 10.04, 155.74)
20 08/27/2018 02:15:00 ( 12.95, 165.60) 08/27/2018 02:17:46 ( 22.69, 163.25)
21 08/27/2018 03:55:40 ( 10.01, 140.90) 08/27/2018 03:57:22 ( 16.01, 139.51)
22 08/27/2018 14:46:03 ( 22.67, 163.51) 08/27/2018 14:49:38 ( 10.05, 160.50)
23 08/28/2018 03:36:38 ( 10.00, 145.66) 08/28/2018 03:40:14 ( 22.69, 142.64)
24 08/28/2018 14:30:12 ( 11.53, 165.60) 08/28/2018 14:30:38 ( 10.00, 165.25)
25 08/28/2018 16:08:32 ( 22.68, 142.89) 08/28/2018 16:12:07 ( 10.06, 139.89)
26 08/29/2018 03:17:38 ( 10.05, 150.40) 08/29/2018 03:21:13 ( 22.68, 147.40)
27 08/29/2018 15:49:30 ( 22.69, 147.65) 08/29/2018 15:53:06 ( 10.01, 144.63)
28 08/30/2018 02:58:36 ( 10.04, 155.16) 08/30/2018 03:02:11 ( 22.67, 152.15)
29 08/30/2018 15:30:29 ( 22.70, 152.41) 08/30/2018 15:34:05 ( 10.02, 149.39)
30 08/31/2018 02:39:35 ( 10.03, 159.92) 08/31/2018 02:43:10 ( 22.66, 156.91)
31 08/31/2018 15:11:28 ( 22.65, 157.15) 08/31/2018 15:15:03 ( 10.03, 154.15)


NCC Satellite Cal/Val Overpasses Prediction Service
